Location: Carlisle
(34.5501°N, 84.5969°W)
Time: 11:30:04
(UTC+00:00)

UNISAT 6 - Pass Details

Date: 03 April 2023
Orbit: 599 x 679 km, 97.7° (Epoch: 07 June)

Event Time Altitude Azimuth Distance (km) Brightness Sun altitude
Rises 10:49:31 0° 179° (S) 2,896 ? -7.6°
Reaches altitude 10° 10:51:43 10° 184° (S) 2,006 ? -7.2°
Maximum altitude 10:55:58 52° 260° (W) 805 ? -6.3°
Drops below altitude 10° 11:00:23 10° 337° (NNW) 2,070 ? -5.4°
Sets 11:02:42 0° 343° (NNW) 2,999 ? -5.0°
